owner,sensor,date,latitude,longitude,vertical_datum,sea_water_temperature,qcFlag 
LUMCON,ioos:station:LUMCON:102:1,2017-03-01T00:00:00Z,29.1870,-90.6093,0.0,21.6,2 
LUMCON,ioos:station:LUMCON:102:1,2017-03-01T00:15:00Z,29.1870,-90.6093,0.0,21.66,2 
LUMCON,ioos:station:LUMCON:102:1,2017-03-01T00:30:00Z,29.1870,-90.6093,0.0,21.52,2 
LUMCON,ioos:station:LUMCON:102:1,2017-03-01T00:45:00Z,29.1870,-90.6093,0.0,21.49,2 
LUMCON,ioos:station:LUMCON:102:1,2017-03-01T01:00:00Z,29.1870,-90.6093,0.0,21.51,2 
LUMCON,ioos:station:LUMCON:102:1,2017-03-01T01:15:00Z,29.1870,-90.6093,0.0,21.44,2 
LUMCON,ioos:station:LUMCON:102:1,2017-03-01T01:30:00Z,29.1870,-90.6093,0.0,21.46,2 
LUMCON,ioos:station:LUMCON:102:1,2017-03-01T01:45:00Z,29.1870,-90.6093,0.0,21.46,2 
LUMCON,ioos:station:LUMCON:102:1,2017-03-01T02:00:00Z,29.1870,-90.6093,0.0,21.47,2 
LUMCON,ioos:station:LUMCON:102:1,2017-03-01T02:15:00Z,29.1870,-90.6093,0.0,21.46,2 
LUMCON,ioos:station:LUMCON:102:1,2017-03-01T02:30:00Z,29.1870,-90.6093,0.0,21.47,2 
LUMCON,ioos:station:LUMCON:102:1,2017-03-01T02:45:00Z,29.1870,-90.6093,0.0,21.49,2 
LUMCON,ioos:station:LUMCON:102:1,2017-03-01T03:00:00Z,29.1870,-90.6093,0.0,21.54,2 
LUMCON,ioos:station:LUMCON:102:1,2017-03-01T03:15:00Z,29.1870,-90.6093,0.0,21.56,2 
LUMCON,ioos:station:LUMCON:102:1,2017-03-01T03:30:00Z,29.1870,-90.6093,0.0,21.57,2 
LUMCON,ioos:station:LUMCON:102:1,2017-03-01T03:45:00Z,29.1870,-90.6093,0.0,21.57,2 
LUMCON,ioos:station:LUMCON:102:1,2017-03-01T04:00:00Z,29.1870,-90.6093,0.0,21.56,2 
LUMCON,ioos:station:LUMCON:102:1,2017-03-01T04:15:00Z,29.1870,-90.6093,0.0,21.58,2 
LUMCON,ioos:station:LUMCON:102:1,2017-03-01T04:30:00Z,29.1870,-90.6093,0.0,21.56,2 
LUMCON,ioos:station:LUMCON:102:1,2017-03-01T04:45:00Z,29.1870,-90.6093,0.0,21.56,2 
LUMCON,ioos:station:LUMCON:102:1,2017-03-01T05:00:00Z,29.1870,-90.6093,0.0,21.56,2 
LUMCON,ioos:station:LUMCON:102:1,2017-03-01T05:15:00Z,29.1870,-90.6093,0.0,21.58,2 
LUMCON,ioos:station:LUMCON:102:1,2017-03-01T05:30:00Z,29.1870,-90.6093,0.0,21.57,2 
LUMCON,ioos:station:LUMCON:102:1,2017-03-01T05:45:00Z,29.1870,-90.6093,0.0,21.56,2 
LUMCON,ioos:station:LUMCON:102:1,2017-03-01T06:00:00Z,29.1870,-90.6093,0.0,21.54,2 
LUMCON,ioos:station:LUMCON:102:1,2017-03-01T06:15:00Z,29.1870,-90.6093,0.0,21.54,2 
LUMCON,ioos:station:LUMCON:102:1,2017-03-01T06:30:00Z,29.1870,-90.6093,0.0,21.56,2 
LUMCON,ioos:station:LUMCON:102:1,2017-03-01T06:45:00Z,29.1870,-90.6093,0.0,21.6,2 
LUMCON,ioos:station:LUMCON:102:1,2017-03-01T07:00:00Z,29.1870,-90.6093,0.0,21.55,2 
LUMCON,ioos:station:LUMCON:102:1,2017-03-01T07:15:00Z,29.1870,-90.6093,0.0,21.55,2 
LUMCON,ioos:station:LUMCON:102:1,2017-03-01T07:30:00Z,29.1870,-90.6093,0.0,21.65,2 
LUMCON,ioos:station:LUMCON:102:1,2017-03-01T07:45:00Z,29.1870,-90.6093,0.0,21.66,2 
LUMCON,ioos:station:LUMCON:102:1,2017-03-01T08:00:00Z,29.1870,-90.6093,0.0,21.6,2 
LUMCON,ioos:station:LUMCON:102:1,2017-03-01T08:15:00Z,29.1870,-90.6093,0.0,21.56,2 
LUMCON,ioos:station:LUMCON:102:1,2017-03-01T08:30:00Z,29.1870,-90.6093,0.0,21.55,2 
LUMCON,ioos:station:LUMCON:102:1,2017-03-01T08:45:00Z,29.1870,-90.6093,0.0,21.52,2 
LUMCON,ioos:station:LUMCON:102:1,2017-03-01T09:00:00Z,29.1870,-90.6093,0.0,21.45,2 
LUMCON,ioos:station:LUMCON:102:1,2017-03-01T09:15:00Z,29.1870,-90.6093,0.0,21.48,2 
LUMCON,ioos:station:LUMCON:102:1,2017-03-01T09:30:00Z,29.1870,-90.6093,0.0,21.49,2 
LUMCON,ioos:station:LUMCON:102:1,2017-03-01T09:45:00Z,29.1870,-90.6093,0.0,21.5,2 
LUMCON,ioos:station:LUMCON:102:1,2017-03-01T10:00:00Z,29.1870,-90.6093,0.0,21.53,2 
LUMCON,ioos:station:LUMCON:102:1,2017-03-01T10:15:00Z,29.1870,-90.6093,0.0,21.53,2 
LUMCON,ioos:station:LUMCON:102:1,2017-03-01T10:30:00Z,29.1870,-90.6093,0.0,21.53,2 
LUMCON,ioos:station:LUMCON:102:1,2017-03-01T10:45:00Z,29.1870,-90.6093,0.0,21.53,2 
LUMCON,ioos:station:LUMCON:102:1,2017-03-01T11:00:00Z,29.1870,-90.6093,0.0,21.53,2 
LUMCON,ioos:station:LUMCON:102:1,2017-03-01T11:15:00Z,29.1870,-90.6093,0.0,21.52,2 
LUMCON,ioos:station:LUMCON:102:1,2017-03-01T11:30:00Z,29.1870,-90.6093,0.0,21.52,2 
LUMCON,ioos:station:LUMCON:102:1,2017-03-01T11:45:00Z,29.1870,-90.6093,0.0,21.51,2 
LUMCON,ioos:station:LUMCON:102:1,2017-03-01T12:00:00Z,29.1870,-90.6093,0.0,21.5,2 
LUMCON,ioos:station:LUMCON:102:1,2017-03-01T12:15:00Z,29.1870,-90.6093,0.0,21.5,2 
LUMCON,ioos:station:LUMCON:102:1,2017-03-01T12:30:00Z,29.1870,-90.6093,0.0,21.5,2 
LUMCON,ioos:station:LUMCON:102:1,2017-03-01T12:45:00Z,29.1870,-90.6093,0.0,21.49,2 
LUMCON,ioos:station:LUMCON:102:1,2017-03-01T13:00:00Z,29.1870,-90.6093,0.0,21.46,2 
LUMCON,ioos:station:LUMCON:102:1,2017-03-01T13:15:00Z,29.1870,-90.6093,0.0,21.49,2 
LUMCON,ioos:station:LUMCON:102:1,2017-03-01T13:30:00Z,29.1870,-90.6093,0.0,21.51,2 
LUMCON,ioos:station:LUMCON:102:1,2017-03-01T13:45:00Z,29.1870,-90.6093,0.0,21.55,2 
LUMCON,ioos:station:LUMCON:102:1,2017-03-01T14:00:00Z,29.1870,-90.6093,0.0,21.66,2 
LUMCON,ioos:station:LUMCON:102:1,2017-03-01T14:15:00Z,29.1870,-90.6093,0.0,21.66,2 
LUMCON,ioos:station:LUMCON:102:1,2017-03-01T14:30:00Z,29.1870,-90.6093,0.0,21.68,2 
LUMCON,ioos:station:LUMCON:102:1,2017-03-01T14:45:00Z,29.1870,-90.6093,0.0,21.68,2 
LUMCON,ioos:station:LUMCON:102:1,2017-03-01T15:00:00Z,29.1870,-90.6093,0.0,21.71,2 
LUMCON,ioos:station:LUMCON:102:1,2017-03-01T15:15:00Z,29.1870,-90.6093,0.0,21.77,2 
LUMCON,ioos:station:LUMCON:102:1,2017-03-01T15:30:00Z,29.1870,-90.6093,0.0,21.87,2 
LUMCON,ioos:station:LUMCON:102:1,2017-03-01T15:45:00Z,29.1870,-90.6093,0.0,21.89,2 
LUMCON,ioos:station:LUMCON:102:1,2017-03-01T16:00:00Z,29.1870,-90.6093,0.0,21.89,2 
LUMCON,ioos:station:LUMCON:102:1,2017-03-01T16:15:00Z,29.1870,-90.6093,0.0,21.9,2 
LUMCON,ioos:station:LUMCON:102:1,2017-03-01T16:30:00Z,29.1870,-90.6093,0.0,21.96,2 
LUMCON,ioos:station:LUMCON:102:1,2017-03-01T16:45:00Z,29.1870,-90.6093,0.0,21.95,2 
LUMCON,ioos:station:LUMCON:102:1,2017-03-01T17:00:00Z,29.1870,-90.6093,0.0,22.03,2 
LUMCON,ioos:station:LUMCON:102:1,2017-03-01T17:15:00Z,29.1870,-90.6093,0.0,22.05,2 
LUMCON,ioos:station:LUMCON:102:1,2017-03-01T17:30:00Z,29.1870,-90.6093,0.0,22.21,2 
LUMCON,ioos:station:LUMCON:102:1,2017-03-01T17:45:00Z,29.1870,-90.6093,0.0,22.42,2 
LUMCON,ioos:station:LUMCON:102:1,2017-03-01T18:00:00Z,29.1870,-90.6093,0.0,22.59,2 
LUMCON,ioos:station:LUMCON:102:1,2017-03-01T18:15:00Z,29.1870,-90.6093,0.0,22.57,2 
LUMCON,ioos:station:LUMCON:102:1,2017-03-01T18:30:00Z,29.1870,-90.6093,0.0,22.13,2 
LUMCON,ioos:station:LUMCON:102:1,2017-03-01T18:45:00Z,29.1870,-90.6093,0.0,22.32,2 
LUMCON,ioos:station:LUMCON:102:1,2017-03-01T19:00:00Z,29.1870,-90.6093,0.0,21.83,2 
LUMCON,ioos:station:LUMCON:102:1,2017-03-01T19:15:00Z,29.1870,-90.6093,0.0,21.83,2 
LUMCON,ioos:station:LUMCON:102:1,2017-03-01T19:30:00Z,29.1870,-90.6093,0.0,21.76,2 
LUMCON,ioos:station:LUMCON:102:1,2017-03-01T19:45:00Z,29.1870,-90.6093,0.0,22.35,2 
LUMCON,ioos:station:LUMCON:102:1,2017-03-01T20:00:00Z,29.1870,-90.6093,0.0,22.35,2 
LUMCON,ioos:station:LUMCON:102:1,2017-03-01T20:15:00Z,29.1870,-90.6093,0.0,22.01,2 
LUMCON,ioos:station:LUMCON:102:1,2017-03-01T20:30:00Z,29.1870,-90.6093,0.0,21.57,2 
LUMCON,ioos:station:LUMCON:102:1,2017-03-01T20:45:00Z,29.1870,-90.6093,0.0,21.47,2 
LUMCON,ioos:station:LUMCON:102:1,2017-03-01T21:00:00Z,29.1870,-90.6093,0.0,21.41,2 
LUMCON,ioos:station:LUMCON:102:1,2017-03-01T21:15:00Z,29.1870,-90.6093,0.0,21.42,2 
LUMCON,ioos:station:LUMCON:102:1,2017-03-01T21:30:00Z,29.1870,-90.6093,0.0,21.39,2 
LUMCON,ioos:station:LUMCON:102:1,2017-03-01T21:45:00Z,29.1870,-90.6093,0.0,21.4,2 
LUMCON,ioos:station:LUMCON:102:1,2017-03-01T22:00:00Z,29.1870,-90.6093,0.0,21.4,2 
LUMCON,ioos:station:LUMCON:102:1,2017-03-01T22:15:00Z,29.1870,-90.6093,0.0,21.46,2 
LUMCON,ioos:station:LUMCON:102:1,2017-03-01T22:30:00Z,29.1870,-90.6093,0.0,21.54,2 
LUMCON,ioos:station:LUMCON:102:1,2017-03-01T22:45:00Z,29.1870,-90.6093,0.0,21.59,2 
LUMCON,ioos:station:LUMCON:102:1,2017-03-01T23:00:00Z,29.1870,-90.6093,0.0,21.59,2 
LUMCON,ioos:station:LUMCON:102:1,2017-03-01T23:15:00Z,29.1870,-90.6093,0.0,21.81,2 
LUMCON,ioos:station:LUMCON:102:1,2017-03-01T23:30:00Z,29.1870,-90.6093,0.0,21.46,2 
LUMCON,ioos:station:LUMCON:102:1,2017-03-01T23:45:00Z,29.1870,-90.6093,0.0,21.47,2 
LUMCON,ioos:station:LUMCON:102:1,2017-03-02T00:00:00Z,29.1870,-90.6093,0.0,21.45,2 
LUMCON,ioos:station:LUMCON:102:1,2017-03-02T00:15:00Z,29.1870,-90.6093,0.0,21.42,2 
LUMCON,ioos:station:LUMCON:102:1,2017-03-02T00:30:00Z,29.1870,-90.6093,0.0,21.42,2 
LUMCON,ioos:station:LUMCON:102:1,2017-03-02T00:45:00Z,29.1870,-90.6093,0.0,21.43,2 
LUMCON,ioos:station:LUMCON:102:1,2017-03-02T01:00:00Z,29.1870,-90.6093,0.0,21.45,2 
LUMCON,ioos:station:LUMCON:102:1,2017-03-02T01:15:00Z,29.1870,-90.6093,0.0,21.47,2 
LUMCON,ioos:station:LUMCON:102:1,2017-03-02T01:30:00Z,29.1870,-90.6093,0.0,21.48,2 
LUMCON,ioos:station:LUMCON:102:1,2017-03-02T01:45:00Z,29.1870,-90.6093,0.0,21.5,2 
LUMCON,ioos:station:LUMCON:102:1,2017-03-02T02:00:00Z,29.1870,-90.6093,0.0,21.53,2 
LUMCON,ioos:station:LUMCON:102:1,2017-03-02T02:15:00Z,29.1870,-90.6093,0.0,21.6,2 
LUMCON,ioos:station:LUMCON:102:1,2017-03-02T02:30:00Z,29.1870,-90.6093,0.0,21.64,2 
LUMCON,ioos:station:LUMCON:102:1,2017-03-02T02:45:00Z,29.1870,-90.6093,0.0,21.65,2 
LUMCON,ioos:station:LUMCON:102:1,2017-03-02T03:00:00Z,29.1870,-90.6093,0.0,21.65,2 
LUMCON,ioos:station:LUMCON:102:1,2017-03-02T03:15:00Z,29.1870,-90.6093,0.0,21.66,2 
LUMCON,ioos:station:LUMCON:102:1,2017-03-02T03:30:00Z,29.1870,-90.6093,0.0,21.66,2 
LUMCON,ioos:station:LUMCON:102:1,2017-03-02T03:45:00Z,29.1870,-90.6093,0.0,21.63,2 
LUMCON,ioos:station:LUMCON:102:1,2017-03-02T04:00:00Z,29.1870,-90.6093,0.0,21.61,2 
LUMCON,ioos:station:LUMCON:102:1,2017-03-02T04:15:00Z,29.1870,-90.6093,0.0,21.8,2 
LUMCON,ioos:station:LUMCON:102:1,2017-03-02T04:30:00Z,29.1870,-90.6093,0.0,22.14,2 
LUMCON,ioos:station:LUMCON:102:1,2017-03-02T04:45:00Z,29.1870,-90.6093,0.0,22.3,2 
LUMCON,ioos:station:LUMCON:102:1,2017-03-02T05:00:00Z,29.1870,-90.6093,0.0,22.35,2 
LUMCON,ioos:station:LUMCON:102:1,2017-03-02T05:15:00Z,29.1870,-90.6093,0.0,22.38,2 
LUMCON,ioos:station:LUMCON:102:1,2017-03-02T05:30:00Z,29.1870,-90.6093,0.0,22.4,2 
LUMCON,ioos:station:LUMCON:102:1,2017-03-02T05:45:00Z,29.1870,-90.6093,0.0,22.41,2 
LUMCON,ioos:station:LUMCON:102:1,2017-03-02T06:00:00Z,29.1870,-90.6093,0.0,22.35,2 
LUMCON,ioos:station:LUMCON:102:1,2017-03-02T06:15:00Z,29.1870,-90.6093,0.0,22.26,2 
LUMCON,ioos:station:LUMCON:102:1,2017-03-02T06:30:00Z,29.1870,-90.6093,0.0,22.25,2 
LUMCON,ioos:station:LUMCON:102:1,2017-03-02T06:45:00Z,29.1870,-90.6093,0.0,22.23,2 
LUMCON,ioos:station:LUMCON:102:1,2017-03-02T07:00:00Z,29.1870,-90.6093,0.0,22.22,2 
LUMCON,ioos:station:LUMCON:102:1,2017-03-02T07:15:00Z,29.1870,-90.6093,0.0,22.11,2 
LUMCON,ioos:station:LUMCON:102:1,2017-03-02T07:30:00Z,29.1870,-90.6093,0.0,22.01,2 
LUMCON,ioos:station:LUMCON:102:1,2017-03-02T07:45:00Z,29.1870,-90.6093,0.0,21.92,2 
LUMCON,ioos:station:LUMCON:102:1,2017-03-02T08:00:00Z,29.1870,-90.6093,0.0,21.82,2 
LUMCON,ioos:station:LUMCON:102:1,2017-03-02T08:15:00Z,29.1870,-90.6093,0.0,21.69,2 
LUMCON,ioos:station:LUMCON:102:1,2017-03-02T08:30:00Z,29.1870,-90.6093,0.0,21.6,2 
LUMCON,ioos:station:LUMCON:102:1,2017-03-02T08:45:00Z,29.1870,-90.6093,0.0,21.53,2 
LUMCON,ioos:station:LUMCON:102:1,2017-03-02T09:00:00Z,29.1870,-90.6093,0.0,21.47,2 
LUMCON,ioos:station:LUMCON:102:1,2017-03-02T09:15:00Z,29.1870,-90.6093,0.0,21.44,2 
LUMCON,ioos:station:LUMCON:102:1,2017-03-02T09:30:00Z,29.1870,-90.6093,0.0,21.4,2 
LUMCON,ioos:station:LUMCON:102:1,2017-03-02T09:45:00Z,29.1870,-90.6093,0.0,21.31,2 
LUMCON,ioos:station:LUMCON:102:1,2017-03-02T10:00:00Z,29.1870,-90.6093,0.0,21.21,2 
LUMCON,ioos:station:LUMCON:102:1,2017-03-02T10:15:00Z,29.1870,-90.6093,0.0,21.14,2 
LUMCON,ioos:station:LUMCON:102:1,2017-03-02T10:30:00Z,29.1870,-90.6093,0.0,21.04,2 
LUMCON,ioos:station:LUMCON:102:1,2017-03-02T10:45:00Z,29.1870,-90.6093,0.0,20.91,2 
LUMCON,ioos:station:LUMCON:102:1,2017-03-02T11:00:00Z,29.1870,-90.6093,0.0,20.72,2 
LUMCON,ioos:station:LUMCON:102:1,2017-03-02T11:15:00Z,29.1870,-90.6093,0.0,20.55,2 
LUMCON,ioos:station:LUMCON:102:1,2017-03-02T11:30:00Z,29.1870,-90.6093,0.0,20.47,2 
LUMCON,ioos:station:LUMCON:102:1,2017-03-02T11:45:00Z,29.1870,-90.6093,0.0,20.4,2 
LUMCON,ioos:station:LUMCON:102:1,2017-03-02T12:00:00Z,29.1870,-90.6093,0.0,20.24,2 
LUMCON,ioos:station:LUMCON:102:1,2017-03-02T12:15:00Z,29.1870,-90.6093,0.0,20.16,2 
LUMCON,ioos:station:LUMCON:102:1,2017-03-02T12:30:00Z,29.1870,-90.6093,0.0,20.02,2 
LUMCON,ioos:station:LUMCON:102:1,2017-03-02T12:45:00Z,29.1870,-90.6093,0.0,20.05,2 
LUMCON,ioos:station:LUMCON:102:1,2017-03-02T13:00:00Z,29.1870,-90.6093,0.0,20.06,2 
LUMCON,ioos:station:LUMCON:102:1,2017-03-02T13:15:00Z,29.1870,-90.6093,0.0,20.02,2 
LUMCON,ioos:station:LUMCON:102:1,2017-03-02T13:30:00Z,29.1870,-90.6093,0.0,19.95,2 
LUMCON,ioos:station:LUMCON:102:1,2017-03-02T13:45:00Z,29.1870,-90.6093,0.0,19.91,2 
LUMCON,ioos:station:LUMCON:102:1,2017-03-02T14:00:00Z,29.1870,-90.6093,0.0,19.87,2 
LUMCON,ioos:station:LUMCON:102:1,2017-03-02T14:15:00Z,29.1870,-90.6093,0.0,19.82,2 
LUMCON,ioos:station:LUMCON:102:1,2017-03-02T14:30:00Z,29.1870,-90.6093,0.0,19.74,2 
LUMCON,ioos:station:LUMCON:102:1,2017-03-02T14:45:00Z,29.1870,-90.6093,0.0,19.65,2 
LUMCON,ioos:station:LUMCON:102:1,2017-03-02T15:00:00Z,29.1870,-90.6093,0.0,19.59,2 
LUMCON,ioos:station:LUMCON:102:1,2017-03-02T15:15:00Z,29.1870,-90.6093,0.0,19.52,2 
LUMCON,ioos:station:LUMCON:102:1,2017-03-02T15:30:00Z,29.1870,-90.6093,0.0,19.52,2 
LUMCON,ioos:station:LUMCON:102:1,2017-03-02T15:45:00Z,29.1870,-90.6093,0.0,19.5,2 
LUMCON,ioos:station:LUMCON:102:1,2017-03-02T16:00:00Z,29.1870,-90.6093,0.0,19.5,2 
LUMCON,ioos:station:LUMCON:102:1,2017-03-02T16:15:00Z,29.1870,-90.6093,0.0,19.54,2 
LUMCON,ioos:station:LUMCON:102:1,2017-03-02T16:30:00Z,29.1870,-90.6093,0.0,19.57,2 
LUMCON,ioos:station:LUMCON:102:1,2017-03-02T16:45:00Z,29.1870,-90.6093,0.0,19.6,2 
LUMCON,ioos:station:LUMCON:102:1,2017-03-02T17:00:00Z,29.1870,-90.6093,0.0,19.61,2 
LUMCON,ioos:station:LUMCON:102:1,2017-03-02T17:15:00Z,29.1870,-90.6093,0.0,19.62,2 
LUMCON,ioos:station:LUMCON:102:1,2017-03-02T17:30:00Z,29.1870,-90.6093,0.0,19.63,2 
LUMCON,ioos:station:LUMCON:102:1,2017-03-02T17:45:00Z,29.1870,-90.6093,0.0,19.63,2 
LUMCON,ioos:station:LUMCON:102:1,2017-03-02T18:00:00Z,29.1870,-90.6093,0.0,19.66,2 
LUMCON,ioos:station:LUMCON:102:1,2017-03-02T18:15:00Z,29.1870,-90.6093,0.0,19.7,2 
LUMCON,ioos:station:LUMCON:102:1,2017-03-02T18:30:00Z,29.1870,-90.6093,0.0,19.74,2 
LUMCON,ioos:station:LUMCON:102:1,2017-03-02T18:45:00Z,29.1870,-90.6093,0.0,19.77,2 
LUMCON,ioos:station:LUMCON:102:1,2017-03-02T19:00:00Z,29.1870,-90.6093,0.0,19.82,2 
LUMCON,ioos:station:LUMCON:102:1,2017-03-02T19:15:00Z,29.1870,-90.6093,0.0,19.86,2 
LUMCON,ioos:station:LUMCON:102:1,2017-03-02T19:30:00Z,29.1870,-90.6093,0.0,19.9,2 
LUMCON,ioos:station:LUMCON:102:1,2017-03-02T19:45:00Z,29.1870,-90.6093,0.0,19.95,2 
LUMCON,ioos:station:LUMCON:102:1,2017-03-02T20:00:00Z,29.1870,-90.6093,0.0,19.99,2 
LUMCON,ioos:station:LUMCON:102:1,2017-03-02T20:15:00Z,29.1870,-90.6093,0.0,20.04,2 
LUMCON,ioos:station:LUMCON:102:1,2017-03-02T20:30:00Z,29.1870,-90.6093,0.0,20.06,2 
LUMCON,ioos:station:LUMCON:102:1,2017-03-02T20:45:00Z,29.1870,-90.6093,0.0,20.05,2 
LUMCON,ioos:station:LUMCON:102:1,2017-03-02T21:00:00Z,29.1870,-90.6093,0.0,20.03,2 
LUMCON,ioos:station:LUMCON:102:1,2017-03-02T21:15:00Z,29.1870,-90.6093,0.0,20.03,2 
LUMCON,ioos:station:LUMCON:102:1,2017-03-02T21:30:00Z,29.1870,-90.6093,0.0,20.02,2 
LUMCON,ioos:station:LUMCON:102:1,2017-03-02T21:45:00Z,29.1870,-90.6093,0.0,20.0,2 
LUMCON,ioos:station:LUMCON:102:1,2017-03-02T22:00:00Z,29.1870,-90.6093,0.0,19.98,2 
LUMCON,ioos:station:LUMCON:102:1,2017-03-02T22:15:00Z,29.1870,-90.6093,0.0,19.98,2 
LUMCON,ioos:station:LUMCON:102:1,2017-03-02T22:30:00Z,29.1870,-90.6093,0.0,19.96,2 
LUMCON,ioos:station:LUMCON:102:1,2017-03-02T22:45:00Z,29.1870,-90.6093,0.0,19.94,2 
LUMCON,ioos:station:LUMCON:102:1,2017-03-02T23:00:00Z,29.1870,-90.6093,0.0,19.86,2 
LUMCON,ioos:station:LUMCON:102:1,2017-03-02T23:15:00Z,29.1870,-90.6093,0.0,19.78,2 
LUMCON,ioos:station:LUMCON:102:1,2017-03-02T23:30:00Z,29.1870,-90.6093,0.0,19.67,2 
LUMCON,ioos:station:LUMCON:102:1,2017-03-02T23:45:00Z,29.1870,-90.6093,0.0,19.59,2 
LUMCON,ioos:station:LUMCON:102:1,2017-03-03T00:00:00Z,29.1870,-90.6093,0.0,19.5,2 
LUMCON,ioos:station:LUMCON:102:1,2017-03-03T00:15:00Z,29.1870,-90.6093,0.0,19.44,2 
LUMCON,ioos:station:LUMCON:102:1,2017-03-03T00:30:00Z,29.1870,-90.6093,0.0,19.38,2 
LUMCON,ioos:station:LUMCON:102:1,2017-03-03T00:45:00Z,29.1870,-90.6093,0.0,19.36,2 
LUMCON,ioos:station:LUMCON:102:1,2017-03-03T01:00:00Z,29.1870,-90.6093,0.0,19.31,2 
LUMCON,ioos:station:LUMCON:102:1,2017-03-03T01:15:00Z,29.1870,-90.6093,0.0,19.31,2 
LUMCON,ioos:station:LUMCON:102:1,2017-03-03T01:30:00Z,29.1870,-90.6093,0.0,19.26,2 
LUMCON,ioos:station:LUMCON:102:1,2017-03-03T01:45:00Z,29.1870,-90.6093,0.0,19.25,2 
LUMCON,ioos:station:LUMCON:102:1,2017-03-03T02:00:00Z,29.1870,-90.6093,0.0,19.18,2 
LUMCON,ioos:station:LUMCON:102:1,2017-03-03T02:15:00Z,29.1870,-90.6093,0.0,19.05,2 
LUMCON,ioos:station:LUMCON:102:1,2017-03-03T02:30:00Z,29.1870,-90.6093,0.0,19.03,2 
LUMCON,ioos:station:LUMCON:102:1,2017-03-03T02:45:00Z,29.1870,-90.6093,0.0,19.02,2 
LUMCON,ioos:station:LUMCON:102:1,2017-03-03T03:00:00Z,29.1870,-90.6093,0.0,18.98,2 
LUMCON,ioos:station:LUMCON:102:1,2017-03-03T03:15:00Z,29.1870,-90.6093,0.0,18.91,2 
LUMCON,ioos:station:LUMCON:102:1,2017-03-03T03:30:00Z,29.1870,-90.6093,0.0,18.78,2 
LUMCON,ioos:station:LUMCON:102:1,2017-03-03T03:45:00Z,29.1870,-90.6093,0.0,18.59,2 
LUMCON,ioos:station:LUMCON:102:1,2017-03-03T04:00:00Z,29.1870,-90.6093,0.0,18.36,2 
LUMCON,ioos:station:LUMCON:102:1,2017-03-03T04:15:00Z,29.1870,-90.6093,0.0,18.36,2 
LUMCON,ioos:station:LUMCON:102:1,2017-03-03T04:30:00Z,29.1870,-90.6093,0.0,18.36,2 
LUMCON,ioos:station:LUMCON:102:1,2017-03-03T04:45:00Z,29.1870,-90.6093,0.0,18.34,2 
LUMCON,ioos:station:LUMCON:102:1,2017-03-03T05:00:00Z,29.1870,-90.6093,0.0,18.37,2 
LUMCON,ioos:station:LUMCON:102:1,2017-03-03T05:15:00Z,29.1870,-90.6093,0.0,18.41,2 
LUMCON,ioos:station:LUMCON:102:1,2017-03-03T05:30:00Z,29.1870,-90.6093,0.0,18.49,2 
LUMCON,ioos:station:LUMCON:102:1,2017-03-03T05:45:00Z,29.1870,-90.6093,0.0,18.52,2 
LUMCON,ioos:station:LUMCON:102:1,2017-03-03T06:00:00Z,29.1870,-90.6093,0.0,18.49,2 
LUMCON,ioos:station:LUMCON:102:1,2017-03-03T06:15:00Z,29.1870,-90.6093,0.0,18.44,2 
LUMCON,ioos:station:LUMCON:102:1,2017-03-03T06:30:00Z,29.1870,-90.6093,0.0,18.39,2 
LUMCON,ioos:station:LUMCON:102:1,2017-03-03T06:45:00Z,29.1870,-90.6093,0.0,18.39,2 
LUMCON,ioos:station:LUMCON:102:1,2017-03-03T07:00:00Z,29.1870,-90.6093,0.0,18.33,2 
LUMCON,ioos:station:LUMCON:102:1,2017-03-03T07:15:00Z,29.1870,-90.6093,0.0,18.3,2 
LUMCON,ioos:station:LUMCON:102:1,2017-03-03T07:30:00Z,29.1870,-90.6093,0.0,18.19,2 
LUMCON,ioos:station:LUMCON:102:1,2017-03-03T07:45:00Z,29.1870,-90.6093,0.0,18.1,2 
LUMCON,ioos:station:LUMCON:102:1,2017-03-03T08:00:00Z,29.1870,-90.6093,0.0,18.02,2 
LUMCON,ioos:station:LUMCON:102:1,2017-03-03T08:15:00Z,29.1870,-90.6093,0.0,17.98,2 
LUMCON,ioos:station:LUMCON:102:1,2017-03-03T08:30:00Z,29.1870,-90.6093,0.0,17.93,2 
LUMCON,ioos:station:LUMCON:102:1,2017-03-03T08:45:00Z,29.1870,-90.6093,0.0,17.91,2 
LUMCON,ioos:station:LUMCON:102:1,2017-03-03T09:00:00Z,29.1870,-90.6093,0.0,17.95,2 
LUMCON,ioos:station:LUMCON:102:1,2017-03-03T09:15:00Z,29.1870,-90.6093,0.0,17.89,2 
LUMCON,ioos:station:LUMCON:102:1,2017-03-03T09:30:00Z,29.1870,-90.6093,0.0,17.84,2 
LUMCON,ioos:station:LUMCON:102:1,2017-03-03T09:45:00Z,29.1870,-90.6093,0.0,17.78,2 
LUMCON,ioos:station:LUMCON:102:1,2017-03-03T10:00:00Z,29.1870,-90.6093,0.0,17.86,2 
LUMCON,ioos:station:LUMCON:102:1,2017-03-03T10:15:00Z,29.1870,-90.6093,0.0,17.72,2 
LUMCON,ioos:station:LUMCON:102:1,2017-03-03T10:30:00Z,29.1870,-90.6093,0.0,17.75,2 
LUMCON,ioos:station:LUMCON:102:1,2017-03-03T10:45:00Z,29.1870,-90.6093,0.0,17.62,2 
LUMCON,ioos:station:LUMCON:102:1,2017-03-03T11:00:00Z,29.1870,-90.6093,0.0,17.69,2 
LUMCON,ioos:station:LUMCON:102:1,2017-03-03T11:15:00Z,29.1870,-90.6093,0.0,17.66,2 
LUMCON,ioos:station:LUMCON:102:1,2017-03-03T11:30:00Z,29.1870,-90.6093,0.0,17.61,2 
LUMCON,ioos:station:LUMCON:102:1,2017-03-03T11:45:00Z,29.1870,-90.6093,0.0,17.63,2 
LUMCON,ioos:station:LUMCON:102:1,2017-03-03T12:00:00Z,29.1870,-90.6093,0.0,17.64,2 
LUMCON,ioos:station:LUMCON:102:1,2017-03-03T12:15:00Z,29.1870,-90.6093,0.0,17.64,2 
LUMCON,ioos:station:LUMCON:102:1,2017-03-03T12:30:00Z,29.1870,-90.6093,0.0,17.66,2 
LUMCON,ioos:station:LUMCON:102:1,2017-03-03T12:45:00Z,29.1870,-90.6093,0.0,17.67,2 
LUMCON,ioos:station:LUMCON:102:1,2017-03-03T13:00:00Z,29.1870,-90.6093,0.0,17.7,2 
LUMCON,ioos:station:LUMCON:102:1,2017-03-03T13:15:00Z,29.1870,-90.6093,0.0,17.71,2 
LUMCON,ioos:station:LUMCON:102:1,2017-03-03T13:30:00Z,29.1870,-90.6093,0.0,17.72,2 
LUMCON,ioos:station:LUMCON:102:1,2017-03-03T13:45:00Z,29.1870,-90.6093,0.0,17.77,2 
LUMCON,ioos:station:LUMCON:102:1,2017-03-03T14:00:00Z,29.1870,-90.6093,0.0,17.81,2 
LUMCON,ioos:station:LUMCON:102:1,2017-03-03T14:15:00Z,29.1870,-90.6093,0.0,17.85,2 
LUMCON,ioos:station:LUMCON:102:1,2017-03-03T14:30:00Z,29.1870,-90.6093,0.0,17.86,2 
LUMCON,ioos:station:LUMCON:102:1,2017-03-03T14:45:00Z,29.1870,-90.6093,0.0,17.88,2 
LUMCON,ioos:station:LUMCON:102:1,2017-03-03T15:00:00Z,29.1870,-90.6093,0.0,17.91,2 
LUMCON,ioos:station:LUMCON:102:1,2017-03-03T15:15:00Z,29.1870,-90.6093,0.0,17.94,2 
LUMCON,ioos:station:LUMCON:102:1,2017-03-03T15:30:00Z,29.1870,-90.6093,0.0,17.97,2 
LUMCON,ioos:station:LUMCON:102:1,2017-03-03T15:45:00Z,29.1870,-90.6093,0.0,18.01,2 
LUMCON,ioos:station:LUMCON:102:1,2017-03-03T16:00:00Z,29.1870,-90.6093,0.0,18.07,2 
LUMCON,ioos:station:LUMCON:102:1,2017-03-03T16:15:00Z,29.1870,-90.6093,0.0,18.1,2 
LUMCON,ioos:station:LUMCON:102:1,2017-03-03T16:30:00Z,29.1870,-90.6093,0.0,18.15,2 
LUMCON,ioos:station:LUMCON:102:1,2017-03-03T16:45:00Z,29.1870,-90.6093,0.0,18.2,2 
LUMCON,ioos:station:LUMCON:102:1,2017-03-03T17:00:00Z,29.1870,-90.6093,0.0,18.24,2 
LUMCON,ioos:station:LUMCON:102:1,2017-03-03T17:15:00Z,29.1870,-90.6093,0.0,18.3,2 
LUMCON,ioos:station:LUMCON:102:1,2017-03-03T17:30:00Z,29.1870,-90.6093,0.0,18.31,2 
LUMCON,ioos:station:LUMCON:102:1,2017-03-03T17:45:00Z,29.1870,-90.6093,0.0,18.34,2 
LUMCON,ioos:station:LUMCON:102:1,2017-03-03T18:00:00Z,29.1870,-90.6093,0.0,18.37,2 
LUMCON,ioos:station:LUMCON:102:1,2017-03-03T18:15:00Z,29.1870,-90.6093,0.0,18.38,2 
LUMCON,ioos:station:LUMCON:102:1,2017-03-03T18:30:00Z,29.1870,-90.6093,0.0,18.39,2 
LUMCON,ioos:station:LUMCON:102:1,2017-03-03T18:45:00Z,29.1870,-90.6093,0.0,18.38,2 
LUMCON,ioos:station:LUMCON:102:1,2017-03-03T19:00:00Z,29.1870,-90.6093,0.0,18.37,2 
LUMCON,ioos:station:LUMCON:102:1,2017-03-03T19:15:00Z,29.1870,-90.6093,0.0,18.33,2 
LUMCON,ioos:station:LUMCON:102:1,2017-03-03T19:30:00Z,29.1870,-90.6093,0.0,18.32,2 
LUMCON,ioos:station:LUMCON:102:1,2017-03-03T19:45:00Z,29.1870,-90.6093,0.0,18.31,2 
LUMCON,ioos:station:LUMCON:102:1,2017-03-03T20:00:00Z,29.1870,-90.6093,0.0,18.31,2 
LUMCON,ioos:station:LUMCON:102:1,2017-03-03T20:15:00Z,29.1870,-90.6093,0.0,18.32,2 
LUMCON,ioos:station:LUMCON:102:1,2017-03-03T20:30:00Z,29.1870,-90.6093,0.0,18.32,2 
LUMCON,ioos:station:LUMCON:102:1,2017-03-03T20:45:00Z,29.1870,-90.6093,0.0,18.34,2 
LUMCON,ioos:station:LUMCON:102:1,2017-03-03T21:00:00Z,29.1870,-90.6093,0.0,18.34,2 
LUMCON,ioos:station:LUMCON:102:1,2017-03-03T21:15:00Z,29.1870,-90.6093,0.0,18.38,2 
LUMCON,ioos:station:LUMCON:102:1,2017-03-03T21:30:00Z,29.1870,-90.6093,0.0,18.41,2 
LUMCON,ioos:station:LUMCON:102:1,2017-03-03T21:45:00Z,29.1870,-90.6093,0.0,18.45,2 
LUMCON,ioos:station:LUMCON:102:1,2017-03-03T22:00:00Z,29.1870,-90.6093,0.0,18.46,2 
LUMCON,ioos:station:LUMCON:102:1,2017-03-03T22:15:00Z,29.1870,-90.6093,0.0,18.47,2 
LUMCON,ioos:station:LUMCON:102:1,2017-03-03T22:30:00Z,29.1870,-90.6093,0.0,18.43,2 
LUMCON,ioos:station:LUMCON:102:1,2017-03-03T22:45:00Z,29.1870,-90.6093,0.0,18.42,2 
LUMCON,ioos:station:LUMCON:102:1,2017-03-03T23:00:00Z,29.1870,-90.6093,0.0,18.45,2 